COMPLETED DISPATCHED CALLS FOR SERVICE

Welcome to the Jacksonville Sheriff’s Office Completed Dispatched Calls for Service webpage. This page displays calls for service made to the Jacksonville Sheriff's Office that have recently been completed. The data on this page is refreshed automatically.

This information is not intended to be used as official crime data. This program does not provide information about all crimes, and excludes specific incidents such as sexual assaults and child abuse.

Disclaimer: The Jacksonville Sheriff's Office makes every effort to produce and publish current and accurate information. No warranties, expressed or implied, are provided for the data herein, its use, or its interpretation. The services provided are for informational purposes only and should not be relied on for any type of legal action.

Last refreshed 7/14 21:20:16

Incident # Dispatched Block Address Signal Call Description  
202000454324 7-14 19:59 CENTURY ST / ATLANTIC BLVD 68 CON GAME/FLIM FLAM
202000454316 7-14 19:59 1000 18TH ST W 27 MENTALLY ILL PERSON
202000454268 7-14 19:54 500 RENNE DR N 13 SUSPICIOUS PERSON
202000454315 7-14 19:52 7TH ST E / HARRISON ST 13 SUSPICIOUS PERSON
202000454311 7-14 19:49 HAWKINS COVE DR W / SUNCHASE DR 1050 TRAFFIC STOP
202000454286 7-14 19:46 2900 HUNT ST 22 DOMESTIC
202000454296 7-14 19:42 TROUT/NEW KING 1050 TRAFFIC STOP
202000454280 7-14 19:41 1400 PRIOLEOU ST 63 DISPUTE
202000454212 7-14 19:41 I10 EXPY CASSAT 96 ASSIST MOTORIST
202000454291 7-14 19:41 200 EDGEWOOD AVE S 1066 CANCEL
202000454290 7-14 19:40 10900 SAN JOSE BLVD 1066 CANCEL
202000454289 7-14 19:39 BROADWAY AVE / BAKER AVE 1050 TRAFFIC STOP
202000454285 7-14 19:39 1500 BERWICK RD 2 22 DOMESTIC DISTURBANCE
202000454282 7-14 19:38 OLD PLANK RD / PICKETTVILLE RD 88P ASSAULT IN PROGRESS
202000454272 7-14 19:35 200 RIO RD 2 63 DISPUTE IMPAIRED/INTOXICATED
202000454260 7-14 19:34 3400 COLUMBUS AVE 6388 DISPUTE WITH ASSAULT
202000454277 7-14 19:34 1ST ST E / LIBERTY ST N 13 SUSPICIOUS PERSON
202000454269 7-14 19:31 NEW KINGS RD / 45TH ST W 1050 TRAFFIC STOP
202000454263 7-14 19:26 100 UNION ST E 73 DRUG INVESTIGATION
202000454261 7-14 19:26 1800 13TH ST W 13 SUSPICIOUS PERSON
202000454262 7-14 19:26 3900 SALISBURY RD 76 ASSIST OTHER AGENCY
202000454258 7-14 19:25 100 MAGNOLIA ST 2 IMPAIRED/INTOXICATED
202000454259 7-14 19:23 4000 CONFEDERATE 1050 TRAFFIC STOP
202000454250 7-14 19:22 I295 N OFF RAMP / MONUMENT RD 60 SUICIDE OR ATTEMPT
202000454153 7-14 19:22 3100 CECELIA ST 63 DISPUTE
202000454208 7-14 19:22 500 BUSCH DR 4 AUTO CRASH
202000454249 7-14 19:20 9900 NEW KINGS RD 1050 TRAFFIC STOP
202000454247 7-14 19:18 NORMANDY BLVD / CARTER LANDING BLVD 1050 TRAFFIC STOP
202000454236 7-14 19:18 MAIN ST N / EASTPORT RD 2 IMPAIRED/INTOXICATED
202000454246 7-14 19:18 BEAVER ST W / RUSHING ST 1050 TRAFFIC STOP
202000454241 7-14 19:17 5200 COLLINS RD 63 DISPUTE
202000454240 7-14 19:16 4400 ROOSEVELT BLVD 76 ASSIST OTHER AGENCY
202000454057 7-14 19:14 MONUMENT RD / ST JOHNS BLUFF RD N 4 AUTO CRASH
202000454211 7-14 19:12 6300 TRIMPE LN 63 DISPUTE
202000454207 7-14 19:11 1100 LANE AVE S 2 63 DISPUTE IMPAIRED/INTOXICATED
202000454226 7-14 19:10 6800 NORMANDY BLVD 63 DISPUTE
202000454230 7-14 19:10 6000 MERRILL RD 60 SUICIDE OR ATTEMPT
202000454201 7-14 19:09 8400 COCOA AVE 10R VEHICLE THEFT RECOVERY
202000454220 7-14 19:08 9600 BAYMEADOWS RD 22 DOMESTIC
202000454227 7-14 19:07 6400 FT CAROLINE RD 76 ASSIST OTHER AGENCY
202000454224 7-14 19:07 1600 2ND ST W 0 73 ARMED DRUG ACTIVITY
202000454225 7-14 19:07 WILLIAMS ST / 11TH ST E 13 SUSPICIOUS PERSON
202000454223 7-14 19:04 11000 NORMANDY BLVD 1050 TRAFFIC STOP
202000454222 7-14 19:04 NORMANDY BLVD / FOURAKER RD 1050 TRAFFIC STOP
202000454148 7-14 19:03 1200 LABELLE ST 63 DISPUTE
202000454194 7-14 19:03 600 BAISEDEN RD 13 SUSPICIOUS PERSON
202000454209 7-14 19:03 11900 HARBOUR COVE DR S 19 ANIMAL INVESTIGATION
202000454127 7-14 19:03 13900 MAIN ST N 0 88 ARMED ASSAULT
202000454206 7-14 18:59 3700 PHILIPS HWY 63 DISPUTE
202082013398 7-14 18:57 900 ATLANTIC BLVD 50 FOUND/ABANDONED PROPERTY
202000454204 7-14 18:53 FT CAROLINE RD / ROGERO RD 63 DISPUTE
202000454205 7-14 18:52 500 PARK ST 96 ASSIST MOTORIST
202000454117 7-14 18:51 5300 FIRESTONE RD 63 DISPUTE
202000454196 7-14 18:49 1300 MAIN ST N 6388 DISPUTE WITH ASSAULT
202000454195 7-14 18:49 PHILIPS HWY / WESTMONT ST 63 DISPUTE
202000454183 7-14 18:49 3600 RENDALE DR N 22 DOMESTIC
202000454176 7-14 18:48 EDISON AVE / CRYSTAL ST 16 ROAD OBSTRUCTION
202000454143 7-14 18:48 2500 MCCOYS CREEK BLVD 22 DOMESTIC
202000454185 7-14 18:48 BEACH BLVD / BROUGHAM AVE 13 SUSPICIOUS PERSON
202000454187 7-14 18:45 STOCKTON ST / ROSSELLE ST 13 SUSPICIOUS PERSON
202000454184 7-14 18:44 NEW BERLIN RD / DUNN CREEK RD 1050 TRAFFIC STOP
202000454174 7-14 18:40 10300 SOUTHSIDE BLVD 8 MISSING PERSON
202000454155 7-14 18:39 10800 PINE ACRES RD 8 MISSING PERSON
202000454170 7-14 18:39 8700 BAYMEADOWS RD 4 AUTO CRASH
202000454166 7-14 18:39 4800 ATLANTIC BLVD 63 DISPUTE
202000454172 7-14 18:38 1100 FORSYTH ST W 27 MENTALLY ILL PERSON
202000454113 7-14 18:37 2800 FITZGERALD ST 2 63 DISPUTE IMPAIRED/INTOXICATED
202000454167 7-14 18:36 I295 N OFF RAMP / SAN JOSE BLVD 96 ASSIST MOTORIST
202000454171 7-14 18:36 4000 BELFORT RD 27 MENTALLY ILL PERSON
202000454149 7-14 18:35 8200 PHILIPS HWY 10R VEHICLE THEFT RECOVERY
202000454083 7-14 18:34 5700 JIMTOM DR 22 DOMESTIC
202000454129 7-14 18:34 12700 ABESS BLVD 63 DISPUTE
202000454164 7-14 18:34 8000 NEW KINGS RD 1050 TRAFFIC STOP
202000454132 7-14 18:33 1400 MANOTAK POINT DR 21R BURGLARY RESIDENCE
202000454125 7-14 18:33 5300 FIRESTONE RD 63 DISPUTE
202000454156 7-14 18:33 5600 PHILIPS HWY 1 IMPAIRED/DRUNK DRIVER
202000454126 7-14 18:32 900 MONROE ST W 13 SUSPICIOUS PERSON
202000454091 7-14 18:32 1700 LEWIS INDUSTRIAL DR 4 AUTO CRASH
202000454138 7-14 18:32 BURNT PINE DR / CROSSVIEW DR 13 SUSPICIOUS PERSON
202000454158 7-14 18:31 2200 KINGS AVE 91 TRAFFIC LIGHT/RR CROSSING MALFUNCTION
202000454139 7-14 18:31 TIMUQUANA RD / CATOMA ST 13 SUSPICIOUS PERSON
202000454101 7-14 18:27 9500 PRINCETON SQUARE BLVD S 27 MENTALLY ILL PERSON
202000454041 7-14 18:23 12100 JADE POINT CT 22 DOMESTIC
202000454142 7-14 18:23 6400 AUTUMN BERRY CIR 60 SUICIDE OR ATTEMPT
202000454114 7-14 18:19 13900 OLD ST AUGUSTINE RD 6388 DISPUTE WITH ASSAULT
202000454133 7-14 18:19 7000 BONNEVAL RD 13 SUSPICIOUS PERSON
202000454105 7-14 18:18 11700 CENTRAL PKWY 37 UNVERIFIED 911 CALL
202000454128 7-14 18:17 1100 DYAL ST 5388 ASSAULT INVOLVING INJURY
202000454063 7-14 18:16 6300 ARLINGTON EXPY 60 SUICIDE OR ATTEMPT
202000454100 7-14 18:16 5700 TALL PINE LN 64 NOISE COMPLAINT
202000453953 7-14 18:14 11900 NEW KINGS RD 10 VEHICLE THEFT
202000454085 7-14 18:12 7300 103RD ST 63 DISPUTE
202000454106 7-14 18:08 1000 EDGEWOOD AVE N 9J THEFT JUST OCCURRED
202000454111 7-14 18:08 900 COLE RD 63 DISPUTE
202000453964 7-14 18:08 6700 103RD ST 1066 CANCEL
202000454097 7-14 18:07 10300 SOUTHSIDE BLVD 37 UNVERIFIED 911 CALL
202000454119 7-14 18:06 NEW KINGS RD / EDGEWOOD AVE N 1050 TRAFFIC STOP
202000454116 7-14 18:05 700 MARKET ST N 76 ASSIST OTHER AGENCY
202000454112 7-14 18:03 LANE AVE S / LENOX AVE 1050 TRAFFIC STOP
202000454061 7-14 18:03 11000 OLD ST AUGUSTINE RD 63 DISPUTE
202000454092 7-14 18:02 13500 SUTTON PARK DR S 63 DISPUTE
202000454110 7-14 18:02 7TH ST W / HURON ST 33 DISCHARGING OF FIREARM
202000454053 7-14 18:02 5400 SPRING RIDGE CT 56 JUVENILE COMPLAINT
202000454099 7-14 18:01 5500 MONCRIEF RD 9J THEFT JUST OCCURRED
202000454059 7-14 18:01 HODGES BLVD / ATLANTIC BLVD 4 AUTO CRASH
202000454071 7-14 17:59 200 FORD AVE 63 DISPUTE
202000454104 7-14 17:59 2300 BLUSH BLOSSOM CT 76 ASSIST OTHER AGENCY
202000454095 7-14 17:59 2000 13TH ST W 22 DOMESTIC
202000454102 7-14 17:58 8800 103RD ST 73 DRUG INVESTIGATION
202000454054 7-14 17:57 3300 SARA DR 6388 DISPUTE WITH ASSAULT
202000454016 7-14 17:56 I295 S OFF RAMP / COLLINS RD 16 ROAD OBSTRUCTION
202000454094 7-14 17:54 6300 HECKSCHER DR 4 AUTO CRASH
202000454089 7-14 17:53 1400 7TH ST W 13 SUSPICIOUS PERSON
202000453962 7-14 17:52 12500 STERLING RUN CT 6388 DISPUTE WITH ASSAULT
202000454077 7-14 17:50 9700 CAMPUS AVE 22 DOMESTIC
202000454090 7-14 17:50 3600 ROGERO RD 1050 TRAFFIC STOP
202000454087 7-14 17:49 AIRPORT CENTER DR / CITY CENTER BLVD 13 SUSPICIOUS PERSON
202000454084 7-14 17:49 1700 RUTLEDGE AVE 63 DISPUTE
202000454081 7-14 17:46 6700 LA LOMA DR 16 ROAD OBSTRUCTION
202000454030 7-14 17:45 11000 OLD ST AUGUSTINE RD 21C BURGLARY CONVEYANCE
202000453913 7-14 17:43 4000 ATLANTIC BLVD 4 AUTO CRASH
202000454069 7-14 17:40 COUNTRY WOODS CT / SHINDLER DR 4 AUTO CRASH
202000454074 7-14 17:39 2200 REDFERN RD 63 DISPUTE
202000454070 7-14 17:39 3000 CORONET LN 9T THEFT (TELESERVE)
202000453955 7-14 17:38 3000 TAMAYA BLVD 4 AUTO CRASH
202000454073 7-14 17:37 RICKER/OLD MIDDLEGURG 1050 TRAFFIC STOP
202000454036 7-14 17:37 BEACH BLVD / HUFFMAN BLVD 4 AUTO CRASH
202000454072 7-14 17:36 5400 NEW KINGS RD 1050 TRAFFIC STOP
202000454068 7-14 17:33 1400 7TH ST W 95ID IDENTITY THEFT
202000454029 7-14 17:33 13900 CRESTWICK DR E 1066 CANCEL
202000454067 7-14 17:33 6800 PHILIPS HWY 38 TRAFFIC ASSIGNMENT
202000454065 7-14 17:32 7600 TIMBERWOOD DR 22 DOMESTIC
202000453966 7-14 17:32 13400 GRAN BAY PKWY 95IDT IDENTITY THEFT TELESERVE
202000454028 7-14 17:30 CECIL COMMERCE CENTER PKWY OFF RAMP / POW-MIA MEMORIAL PKWY 19 ANIMAL INVESTIGATION
202000453954 7-14 17:29 1600 GLENDALE RD 22 DOMESTIC
202000454060 7-14 17:29 OLDMIDDLEBURG/FOXDALE 1050 TRAFFIC STOP
202000454052 7-14 17:26 ST JOHNS BLUFF RD S / TOWN CENTER PKWY 16 ROAD OBSTRUCTION
202000454005 7-14 17:26 9400 CRAVEN RD 13 SUSPICIOUS PERSON
202000453998 7-14 17:26 12700 BARTRAM PARK BLVD 9T THEFT (TELESERVE)
202000453916 7-14 17:25 I95 N OFF RAMP / PHILIPS HWY 4 AUTO CRASH
202000453884 7-14 17:25 I95 N OFF RAMP / PHILIPS HWY 4 AUTO CRASH
202000453869 7-14 17:25 11200 OLD ST AUGUSTINE RD 1066 CANCEL
202000453865 7-14 17:25 100 BUCKMAN BRG N 13 SUSPICIOUS PERSON
202000454047 7-14 17:22 700 CALVERT ST 22 DOMESTIC
202000453934 7-14 17:21 100 LAURA ST N 95IDT IDENTITY THEFT TELESERVE
202000454040 7-14 17:19 ICW / ST JOHNS RIVER 38 TRAFFIC ASSIGNMENT
202000454037 7-14 17:18 11900 ATLANTIC BLVD 9 THEFT
202000454038 7-14 17:16 103RD/PLAYPEN 1050 TRAFFIC STOP
202000454032 7-14 17:16 OLD ST AUGUSTINE RD / LOSCO RD 4 AUTO CRASH
202000454019 7-14 17:13 13200 CITY SQUARE DR 37 UNVERIFIED 911 CALL
202000454014 7-14 17:13 12300 CARRIANN COVE TRL S 76 ASSIST OTHER AGENCY
202000453967 7-14 17:12 4200 DUNN AVE 13 SUSPICIOUS PERSON
202000454035 7-14 17:12 5300 WESTCHASE CT 1050 TRAFFIC STOP
202000454033 7-14 17:12 4500 ST AUGUSTINE RD 1066 CANCEL
202000454034 7-14 17:11 13000 CITY STATION DR 9 THEFT
202000454031 7-14 17:09 5500 NEW KINGS RD 1050 TRAFFIC STOP
202000454027 7-14 17:08 6000 LAKE GRAY BOULEVARD 11 ABANDONED VEHICLE
202000454024 7-14 17:07 6300 WILSON 1050 TRAFFIC STOP
202000454021 7-14 17:07 1200 24TH ST W 22 DOMESTIC
202000453996 7-14 17:05 3200 DILLON ST 63 DISPUTE
202000453993 7-14 17:05 3600 ROGERO RD 63 DISPUTE
202000454017 7-14 17:05 1200 LABELLE ST 4 63 CRASH INVOLVING DISPUTE
202000454002 7-14 17:03 4500 SAN PABLO RD S 4 AUTO CRASH
202000454001 7-14 17:03 4200 MONCRIEF RD W 22 DOMESTIC
202000454010 7-14 17:03 10900 SAN JOSE BLVD 4 AUTO CRASH
202000454013 7-14 17:02 2900 RAYFORD ST 2288 DOMESTIC DISPUTE WITH/ASSAULT
202000453989 7-14 17:00 3200 UNIVERSITY BLVD S 64 NOISE COMPLAINT
202000453952 7-14 17:00 6400 COOPER LN 63 DISPUTE
202000454004 7-14 17:00 I95 S OFF RAMP / AIRPORT RD 13 SUSPICIOUS PERSON
202000453847 7-14 17:00 9800 HUTCHINSON PARK DR 9 THEFT
202000453930 7-14 16:59 9500 ARLINGTON EXPY 3 HIT AND RUN CRASH
202000454006 7-14 16:59 9100 BEAUCLERC CIR W 76 ASSIST OTHER AGENCY
202000453994 7-14 16:59 1000 16TH ST E 63 DISPUTE
202000453997 7-14 16:59 4000 ROGERS AVE 21R BURGLARY RESIDENCE
202000454009 7-14 16:59 RICKER RD / RAMBLER RD 1050 TRAFFIC STOP
202000454008 7-14 16:59 7200 MELVIN RD 11 ABANDONED VEHICLE
202000453756 7-14 16:58 2500 DANCER DR 63 DISPUTE
202000454000 7-14 16:57 6000 ARGYLE FOREST BLVD 68 CON GAME/FLIM FLAM
202000453988 7-14 16:56 1300 MAIN ST N 63 DISPUTE
202000453976 7-14 16:56 ARLINGTON EXPY / SOUTHSIDE CONNECTOR OFF RAMP 4 AUTO CRASH
202000453951 7-14 16:54 9500 BAYMEADOWS RD 4 AUTO CRASH
202000453945 7-14 16:53 10100 BAYMEADOWS RD 63 DISPUTE
202000453961 7-14 16:52 10500 LEM TURNER RD 63 DISPUTE
202000453980 7-14 16:51 13700 OLD ST AUGUSTINE RD 4 AUTO CRASH
202000453987 7-14 16:50 5900 RICKER RD 1050 TRAFFIC STOP
202000453968 7-14 16:49 1000 CAHOON RD 8 MISSING PERSON
202000453985 7-14 16:48 1400 WINDLE ST 88J ASSAULT JUST OCCURRED
202000453959 7-14 16:47 11100 PINE ST 22 DOMESTIC
202000453973 7-14 16:47 200 STATE ST W 63 DISPUTE
202000453978 7-14 16:46 12400 BISCAYNE BLVD 13 SUSPICIOUS PERSON
202000453972 7-14 16:44 3900(1129) BLK POPLAR ST 63 DISPUTE
202000453958 7-14 16:42 2800 SAND CASTLE LN 63 DISPUTE
202000453900 7-14 16:41 MERRILL RD / I295 N OFF RAMP 3 HIT AND RUN CRASH
202000453969 7-14 16:41 200 CLAUDE ST 11 ABANDONED VEHICLE
202000453858 7-14 16:39 10200 PAVNES CREEK DR 22 DOMESTIC
202000453965 7-14 16:38 9300 PHILIPS HWY 9 THEFT
202000453927 7-14 16:38 6300 ROOSEVELT BLVD 63 DISPUTE
202000453960 7-14 16:35 900 MONROE ST W 60 SUICIDE OR ATTEMPT
202000453956 7-14 16:33 5400 PLYMOUTH ST 63 DISPUTE
202000453918 7-14 16:33 5700 PHILIPS HWY 4 63 CRASH INVOLVING DISPUTE
202000453957 7-14 16:32 I295 N OFF RAMP / NEW KINGS RD 1050 TRAFFIC STOP
202000453943 7-14 16:32 12900 BROXTON BAY DR 9T THEFT (TELESERVE)
202000453925 7-14 16:31 4460(4458) BLK GLENDAS MEADOW DR 22 DOMESTIC
202000453887 7-14 16:31 4200 PHILIPS HWY 9J THEFT JUST OCCURRED
202000453886 7-14 16:31 3500 EMERSON ST 63 DISPUTE
202000453838 7-14 16:30 I10 E OFF RAMP / RAMONA BLVD W 4 AUTO CRASH
202000453231 7-14 16:30 I295 S ON RAMP / NORMANDY BLVD 4 AUTO CRASH
202000453928 7-14 16:29 5900 ARLINGTON RD 9T THEFT (TELESERVE)
202000453841 7-14 16:28 700 ASSISI LN 22 DOMESTIC
202000453942 7-14 16:25 400 LEE ST N 60 SUICIDE OR ATTEMPT
202000009002 7-14 16:23 4800 FIRST COAST TECH PKWY 63 DISPUTE
202000453888 7-14 16:23 5800 PEPSI PL 96 ASSIST MOTORIST
202000453938 7-14 16:21 I95 N OFF RAMP / BAYMEADOWS RD 4 53 TRAFFIC CRASH PERSON INJURED
202000453924 7-14 16:19 500 63RD ST E 27 MENTALLY ILL PERSON
202000453793 7-14 16:19 7300 WOOD DUCK RD 22 DOMESTIC
202000453923 7-14 16:17 7600 PARADISE ISLAND BLVD 9 THEFT
202000453932 7-14 16:16 4800 FIRST COAST TECH PKWY 1066 CANCEL
202000453933 7-14 16:16 NEW KINGS RD / MONCRIEF RD W 1050 TRAFFIC STOP
202000453783 7-14 16:16 3700 BLANDING BLVD 9 THEFT
202000453909 7-14 16:13 200 COAST LINE DR E 10 VEHICLE THEFT
202000453889 7-14 16:12 6800 MAIN ST N 73 DRUG INVESTIGATION
202000453915 7-14 16:12 MAIN ST N / STATE ST E 9T THEFT (TELESERVE)
202000453902 7-14 16:09 5200 NORWOOD AVE 63 DISPUTE
202000453920 7-14 16:09 7000 103RD ST 68 CON GAME/FLIM FLAM
202000453893 7-14 16:07 OLD ST AUGUSTINE RD / TOBIN DR 3 HIT AND RUN CRASH
202000453873 7-14 16:07 ARLINGTON EXPY / ATLANTIC BLVD 3 HIT AND RUN CRASH
202000453894 7-14 16:06 7600 JASPER AVE 19 ANIMAL INVESTIGATION
202000453911 7-14 16:05 5300 BRIGHTON PARK LN 76 ASSIST OTHER AGENCY
202000453885 7-14 16:05 2900 PHILIPS HWY 10 VEHICLE THEFT
202000453901 7-14 16:04 1600 28TH ST E 63 DISPUTE
202000453908 7-14 16:04 300 NORTHSIDE DR S 11 ABANDONED VEHICLE
202000453899 7-14 16:01 11100 CAROLINE CREST DR 3 HIT AND RUN CRASH
202000453904 7-14 16:01 BEAVER ST W / ROBINSON AVE 96 ASSIST MOTORIST
202000453898 7-14 16:01 BUSCH DR / DUNDAS DR 4 AUTO CRASH
202000453856 7-14 15:59 8300 THORNTON CT 1066 CANCEL
202000453829 7-14 15:57 3300 MONUMENT RD 63 DISPUTE
202000453854 7-14 15:56 1500 21ST ST W 27 MENTALLY ILL PERSON
202000453834 7-14 15:55 7200 BUNION DR 12 RECKLESS DRIVER
202000453833 7-14 15:53 5400 NORWOOD AVE 9 THEFT
202000453859 7-14 15:53 8000 PARRAMORE RD 3 HIT AND RUN CRASH
202000453750 7-14 15:53 105TH ST / WESCONNETT BLVD 4 53 TRAFFIC CRASH PERSON INJURED
202000453883 7-14 15:50 1400 PRUDENTIAL DR 60 SUICIDE OR ATTEMPT
202000453879 7-14 15:49 1800 LIBERTY ST N 76 ASSIST OTHER AGENCY
202000453860 7-14 15:49 8800 5TH AVE 2288 DOMESTIC DISPUTE WITH/ASSAULT
202000453881 7-14 15:49 LIBERTY ST N / 9TH ST E 88J ASSAULT JUST OCCURRED
202000453823 7-14 15:48 2400 CYPRESS LANDING DR 22 DOMESTIC
202000453822 7-14 15:48 1300 MC GIRTS CREEK DR E 22 DOMESTIC
202000453868 7-14 15:44 MARBON RD / SAN JOSE BLVD 4 AUTO CRASH
202000453872 7-14 15:44 1400 26TH ST E 13 SUSPICIOUS PERSON
202000453759 7-14 15:44 3000 HICKORYNUT ST 4 AUTO CRASH
202000453825 7-14 15:44 1100 SUEMAC RD 21C BURGLARY CONVEYANCE
202000453840 7-14 15:43 7400 CENTAURI RD 4 AUTO CRASH
202000453867 7-14 15:42 2900 LENOX AVE 22 DOMESTIC
202000453861 7-14 15:41 1500 CASSAT AVE 63 DISPUTE
202000453755 7-14 15:39 300 ERIC AVE 9 THEFT
202000453864 7-14 15:38 NORMANDY BLVD / ELLIS RD S 1050 TRAFFIC STOP
202000453761 7-14 15:38 1400 24TH ST E 22 DOMESTIC
202000453788 7-14 15:37 5000 CHADROE RD 63 DISPUTE
202000453857 7-14 15:36 100 MATHEWS BRG W 4 AUTO CRASH
202000453844 7-14 15:35 TREDINICK PKWY / SOUTHSIDE CONNECTOR SERVICE RD 4 AUTO CRASH
202000453851 7-14 15:34 10900 BEACH BLVD 8 MISSING PERSON
202000453850 7-14 15:33 6800 NORMANDY BLVD 5582 HOLDING ONE FOR SHOPLIFTING
202000453813 7-14 15:32 OLD MIDDLEBURG RD S / MARLEE RD 4 AUTO CRASH
202000453821 7-14 15:31 1500 UNIVERSITY BLVD W 9 THEFT
202000453830 7-14 15:31 1800 KINGS AVE 4 AUTO CRASH
202000453837 7-14 15:31 11800 BEACH BLVD 63 DISPUTE
202000453846 7-14 15:30 FAIRWAY ST / TALLEYRAND AVE 23IJ ROBBERY INDIVIDUAL JUST OCCD
202000453703 7-14 15:30 6400 ARGYLE FOREST BLVD 63 DISPUTE
202000453768 7-14 15:28 5700 CLEVELAND RD 9T THEFT (TELESERVE)
202000453790 7-14 15:27 4200 SUNBEAM RD 50 FOUND/ABANDONED PROPERTY
202000453839 7-14 15:27 6000 LAKE GRAY BLVD 4 AUTO CRASH
202000453693 7-14 15:27 4400 TELKA LYNN DR 22 DOMESTIC
202000453694 7-14 15:27 8000 NORMANDY BLVD 63 DISPUTE
202000453654 7-14 15:26 5600 BEAVER ST W 95 FRAUD/FORGED (CHECK, ID, RX)
202000453835 7-14 15:25 2900 NEWELL BLVD 76 ASSIST OTHER AGENCY
202000453815 7-14 15:25 ARLINGTON XY SERVICE RD / CESERY BLVD 68 CON GAME/FLIM FLAM
202000453831 7-14 15:22 500 ADAMS ST E 13 SUSPICIOUS PERSON
202000453775 7-14 15:22 4200 SOUTHSIDE BLVD 63 DISPUTE
202000453765 7-14 15:21 6800 RHODE ISLAND DR W 95 FRAUD/FORGED (CHECK, ID, RX)
202000453819 7-14 15:20 9000 GLOUCESTERSHIRE CT 27 MENTALLY ILL PERSON
202000453789 7-14 15:18 1900 11TH ST W 63 DISPUTE
202082013394 7-14 15:17 ATLANTIC BLVD / PINE ST 4 AUTO CRASH
202000453502 7-14 15:17 1300 NEVA ST 22 DOMESTIC
202000453817 7-14 15:17 8300 NEW KINGS RD 63 DISPUTE
202000453612 7-14 15:16 SKYMARKS DR / MAX LEGGETT PKWY 4 AUTO CRASH
202000453797 7-14 15:16 9900 ATLANTIC BLVD 63 DISPUTE
202000453816 7-14 15:16 UNIVERSITY BLVD W / BARNES RD 4 53 TRAFFIC CRASH PERSON INJURED
202000453812 7-14 15:16 5800 ATLANTIC BLVD 28 DELIVER MESSAGE
202000453808 7-14 15:14 12300 SACHA RD 76 ASSIST OTHER AGENCY
202000453807 7-14 15:13 1500 PERSHING RD 54 ILLEGALLY PARKED CAR
202000453802 7-14 15:13 13000 GRAN BAY PKWY 76 ASSIST OTHER AGENCY
202000453796 7-14 15:12 8800 BEACH BLVD 68 CON GAME/FLIM FLAM
202000453803 7-14 15:12 6800 WILSON BLVD 9P THEFT IN PROGRESS
202000453734 7-14 15:09 900 WATER ST 63 DISPUTE
202000453798 7-14 15:09 I95 S OFF RAMP / EMERSON ST 4 AUTO CRASH
202000453691 7-14 15:07 9700 ATLANTIC BLVD 63 DISPUTE
202000453795 7-14 15:07 BLANDING BLVD / 103RD ST 3 HIT AND RUN CRASH
202000453792 7-14 15:06 7300 AMANDAS CROSSING DR S 8 MISSING PERSON
202000453787 7-14 15:04 9600 CROSSHILL BLVD 56 JUVENILE COMPLAINT
202000453707 7-14 15:03 1600 7TH ST W 22 DOMESTIC
202000453777 7-14 15:02 2500 CALVIN ST 86T LOST PROPERTY (TELESERVE)
202000453779 7-14 14:59 5500 SHAD RD 63 DISPUTE
202000453772 7-14 14:55 700 EDGEWOOD AVE N 1066 CANCEL
202000453752 7-14 14:54 MAIN ST N / TALLULAH AVE 3 HIT AND RUN CRASH
202000453613 7-14 14:54 700 MARKET ST N 63 DISPUTE
202000453769 7-14 14:54 2800 LANTANA LAKES DR E 21C BURGLARY CONVEYANCE
202000453766 7-14 14:53 I95 N OFF RAMP / KINGS RD 4 63 CRASH INVOLVING DISPUTE
202000453737 7-14 14:52 9500 ARLINGTON EXPY 9T THEFT (TELESERVE)
202000453605 7-14 14:52 5700 MERRILL RD 22 DOMESTIC
202000453650 7-14 14:52 1900 ATLANTIC BLVD 63 DISPUTE
202000453762 7-14 14:51 7200 OXFORDSHIRE AVE 8 MISSING PERSON
202000453719 7-14 14:50 BEACH BLVD / PARENTAL HOME RD 4 AUTO CRASH
202000453763 7-14 14:49 3500 STATION CREEK RD 12 RECKLESS DRIVER
202000453723 7-14 14:49 8000 RAMONA BLVD W 13 SUSPICIOUS PERSON
202000453757 7-14 14:46 SHAWNEE ST / ROOSEVELT BLVD 96 ASSIST MOTORIST
202000453754 7-14 14:46 4900 TOWN CENTER PKWY 63 DISPUTE
202000453751 7-14 14:46 2700 GREEN ST 73 DRUG INVESTIGATION
202000453606 7-14 14:45 6000 ARGYLE FOREST BLVD 14C VANDALISM CONVEYANCE
202000453753 7-14 14:45 10200 ATLANTIC BLVD 4 AUTO CRASH
202000453748 7-14 14:41 5100 HARLOW BLVD 52 ILLEGAL DUMPING
202000453747 7-14 14:41 7500 SALISBURY RD 63 DISPUTE
202000453743 7-14 14:40 1200 23RD ST W 21RP BURGLARY RESIDENCE IN PROGRESS
202000453742 7-14 14:38 WESCONNETT BLVD / 103RD ST 4 53 TRAFFIC CRASH PERSON INJURED
202000453730 7-14 14:37 9700 JUPITER CT S 4 AUTO CRASH
202000453689 7-14 14:37 14900 MAX LEGGETT PKWY 9J THEFT JUST OCCURRED
202000453741 7-14 14:36 14000 NEW KINGS RD 1050 TRAFFIC STOP
202000453729 7-14 14:36 7300 MERRILL RD 1066 CANCEL
202000453736 7-14 14:36 SAN PABLO RD S / SEAFARER DR 4 53 TRAFFIC CRASH PERSON INJURED
202000453738 7-14 14:34 13300 BEACH BLVD 12 RECKLESS DRIVER
202000453724 7-14 14:29 1200 TALBOT AVE 4 AUTO CRASH
202000453728 7-14 14:29 3200 PHILLIPS HWY 52 ILLEGAL DUMPING
202000453722 7-14 14:28 11600 SURFWOOD AVE 95ID IDENTITY THEFT
202000453726 7-14 14:28 I95 N OFF RAMP / 8TH ST W 4 53 TRAFFIC CRASH PERSON INJURED
202000453721 7-14 14:26 13400 ASHFORD WOOD CT W 60 SUICIDE OR ATTEMPT
202000453720 7-14 14:25 NORMANDY/ELLIS 1050 TRAFFIC STOP
202000453717 7-14 14:24 100 MATHEWS BRG W 16 ROAD OBSTRUCTION
202000453718 7-14 14:24 I95 N OFF RAMP / MARTIN LUTHER KING JR PKWY 4 53 TRAFFIC CRASH PERSON INJURED
202000453713 7-14 14:23 MERRILL RD / TROLLIE LN 22 DOMESTIC
202000453715 7-14 14:23 3600 AVALON COVE DR E 12 RECKLESS DRIVER
202000453681 7-14 14:21 COLLINS RD / PARRAMORE RD 4 AUTO CRASH
202000453709 7-14 14:21 BEACH BLVD / SSEXIT BCH RP 68 CON GAME/FLIM FLAM
202000453711 7-14 14:21 13300 BEACH 12 RECKLESS DRIVER
202000453648 7-14 14:20 8400 BLANDING BLVD 63 DISPUTE
202000453669 7-14 14:20 100 SHIRCLIFF WAY 49 REPORT TO HOSPITAL
202000453670 7-14 14:18 13400 BEACH BLVD 3 HIT AND RUN CRASH
202000453699 7-14 14:16 12400 ANTLER HILL LN 1066 CANCEL
202000453690 7-14 14:16 3300 SARA DR 63 DISPUTE
202000453682 7-14 14:11 I95 N N / I295 S WBWY OFF RAMP 96 ASSIST MOTORIST
202000453686 7-14 14:08 2200 13TH ST W 10R VEHICLE THEFT RECOVERY
202000453619 7-14 14:08 9000 MERRILL RD 2 63 DISPUTE IMPAIRED/INTOXICATED
202000453685 7-14 14:07 3900 HUNT CLUB RD 12 RECKLESS DRIVER
202000453657 7-14 14:06 103RD ST / JAMMES RD 9J THEFT JUST OCCURRED
202000453678 7-14 14:03 200 ZOO PKWY 1050 TRAFFIC STOP
202000453677 7-14 14:03 JTB W OFF RAMP / HODGES BLVD 4 25 CRASH W/FIRE
202000453660 7-14 14:03 7900 ATLANTIC BLVD 22 DOMESTIC
202000453365 7-14 14:02 5000 SOUTEL DR 4 53 TRAFFIC CRASH PERSON INJURED
202000453665 7-14 14:02 MYRTLE AVE N / 7TH ST W 63 DISPUTE
202000453651 7-14 14:00 7900 LOS ROBLES CT 3 HIT AND RUN CRASH
202000453407 7-14 14:00 SAN JOSE BLVD / SAN LUCAS RD 4 63 CRASH INVOLVING DISPUTE
202000453656 7-14 13:57 10700 PHILIPS HWY 27 MENTALLY ILL PERSON
202082013392 7-14 13:57 600 LEVY RD 10R VEHICLE THEFT RECOVERY
202000453663 7-14 13:57 5100 LENOX AVE 9J THEFT JUST OCCURRED
202000453662 7-14 13:57 11000 DUVAL RD 60 SUICIDE OR ATTEMPT
202000453641 7-14 13:55 300 CHURCH ST E 1066 CANCEL
202000453659 7-14 13:54 1900 EDGEWOOD AVE W 1066 CANCEL
202000453655 7-14 13:53 1200 STIMSON ST 1066 CANCEL
202000453600 7-14 13:52 100 SANTA BARBARA AVE 63 DISPUTE
202000453646 7-14 13:51 4300 BRENTWOOD AVE 14B VANDALISM BUSINESS
202000453653 7-14 13:50 I95 S ON RAMP / MAIN STREET BRIDGE EXPY 96 ASSIST MOTORIST
202000453649 7-14 13:49 5800 UNIVERSITY BLVD W 13 SUSPICIOUS PERSON
202000453503 7-14 13:49 900 LIBERTY ST N 73 DRUG INVESTIGATION
202000453645 7-14 13:48 13900 BARTRAM PARK BLVD 22 DOMESTIC
202000453636 7-14 13:48 12400 BISCAYNE BLVD 22 DOMESTIC
202000453644 7-14 13:46 COLLINS RD / RAMPART RD 4 AUTO CRASH
202000453615 7-14 13:45 1600 SAN PABLO RD S 1066 CANCEL
202000453565 7-14 13:44 4500 SUNBEAM RD 1066 CANCEL
202000453626 7-14 13:44 6700 103RD ST 14CT VANDALISM CONVEYANCE TELESERVE
202000453618 7-14 13:43 9400 SAN JOSE BLVD 9J THEFT JUST OCCURRED
202000453639 7-14 13:41 12600 PHILLIPS HWY 52 ILLEGAL DUMPING
202000453624 7-14 13:40 1500 BLOOMINGDALE RD 13 SUSPICIOUS PERSON
202000453634 7-14 13:40 9600 SIBBALD RD 1066 CANCEL
202000453635 7-14 13:40 8700 SOUTHSIDE BLVD 4 AUTO CRASH
202000453632 7-14 13:40 NORMANDY BLVD / LANE AVE S 86 LOST PROPERTY
202000453628 7-14 13:39 100 OAKLEAF VILLAGE PKWY 4 AUTO CRASH
202000453631 7-14 13:39 5700 ROOSEVELT BLVD 4 AUTO CRASH
202000453633 7-14 13:39 41000 HECKSHIRE DR 50 FOUND/ABANDONED PROPERTY
202000453582 7-14 13:38 10900 MERRYWOOD DR 63 DISPUTE
202000453625 7-14 13:37 4800 EXECUTIVE PARK CT 14C VANDALISM CONVEYANCE
202000453603 7-14 13:35 11900 ATLANTIC BLVD 13 SUSPICIOUS PERSON
202000453620 7-14 13:34 12800 HUNT CLUB RD N 12 RECKLESS DRIVER
202000453559 7-14 13:34 4000 ALMEDA ST 63 DISPUTE
202000453610 7-14 13:34 9500 ARLINGTON EXPY 9J THEFT JUST OCCURRED
202000453574 7-14 13:33 7200 OXFORDSHIRE AVE 1066 CANCEL
202000453607 7-14 13:31 7300 BEACH BLVD 63 DISPUTE
202000453549 7-14 13:30 500 LANE AVE S 2 63 DISPUTE IMPAIRED/INTOXICATED
202000453598 7-14 13:29 100 MONROE ST W 63 DISPUTE
202000453517 7-14 13:28 6100 YOUNGERMAN CIR 63 DISPUTE
202082013390 7-14 13:25 100 OCEAN BLVD 63 DISPUTE
202000453513 7-14 13:24 3400 LENOX AVE 1066 CANCEL
202000453609 7-14 13:24 6700 BLANDING BLVD 9J THEFT JUST OCCURRED
202000453604 7-14 13:23 6300 BEACH BLVD 88 ASSAULT
202000453595 7-14 13:23 1600 FOURAKER RD 9J THEFT JUST OCCURRED
202000453590 7-14 13:22 700 NEW BERLIN RD 5388 ASSAULT INVOLVING INJURY
202000453469 7-14 13:21 8300 LONGSPUR AVE 21R BURGLARY RESIDENCE
202000453597 7-14 13:20 11500 KENNEDY LN 63 DISPUTE
202000453553 7-14 13:19 8000 BAYMEADOWS CIR E 95ID IDENTITY THEFT
202000453444 7-14 13:18 3300 MAIN ST N 63 DISPUTE
202000453379 7-14 13:16 9400 HUNSTON MILL LN 63 DISPUTE
202000453573 7-14 13:15 1100 32ND ST W 14CT VANDALISM CONVEYANCE TELESERVE
202000453588 7-14 13:15 3100 EDGEWOOD AVE N 63 DISPUTE
202000453536 7-14 13:15 2000 HODGES BLVD 50 FOUND/ABANDONED PROPERTY
202000453178 7-14 13:14 4600 MARLBORO CIR W 95ID IDENTITY THEFT
202000453515 7-14 13:13 I95 N OFF RAMP / BOWDEN RD 16 ROAD OBSTRUCTION
202000453427 7-14 13:13 JTB W OFF RAMP / KERNAN BLVD S 16 ROAD OBSTRUCTION
202000453237 7-14 13:13 I95 N OFF RAMP / BOWDEN RD 4 AUTO CRASH
202000453069 7-14 13:13 I295 N ON RAMP / JTB E OFF RAMP 4 AUTO CRASH
202000453500 7-14 13:12 3400 COLUMBUS AVE 63 DISPUTE
202000453421 7-14 13:12 1600 MYRTLE AVE N 1066 CANCEL
202000453594 7-14 13:12 13100 MAIN ST N 4 AUTO CRASH
202000453593 7-14 13:12 1000 DEFENDER CT W 13 SUSPICIOUS PERSON
202000453585 7-14 13:12 9TH ST W / WILSON ST 3 HIT AND RUN CRASH
202000453591 7-14 13:10 3000 BESSENT RD 52 ILLEGAL DUMPING
202000453589 7-14 13:10 2500 OAK ST 63 DISPUTE
202082013389 7-14 13:10 2400 MAYPORT RD 13 SUSPICIOUS PERSON
202000453584 7-14 13:10 9400 103RD ST 7 DEAD PERSON
202000453505 7-14 13:08 13500 WOODLAND DR 21C BURGLARY CONVEYANCE
202000453583 7-14 13:07 5000 SAN JOSE 1050 TRAFFIC STOP
202000453493 7-14 13:06 100 LAURA ST N 63 DISPUTE
202082013388 7-14 13:03 MAYPORT RD / ATLEXIT MAYPORT RP 4 53 TRAFFIC CRASH PERSON INJURED
202000453557 7-14 13:03 6300 HARLOW BLVD 54 ILLEGALLY PARKED CAR
202000453575 7-14 13:02 PRITCHARD RD / IMESON RD 1066 CANCEL
202000453539 7-14 13:00 SAN JOSE BLVD / CLAIRE LN 13 SUSPICIOUS PERSON
202000453537 7-14 12:57 HOOD RD S / HERONVIEW DR 96 ASSIST MOTORIST
202000453567 7-14 12:57 5500 NORMANDY BLVD 76 ASSIST OTHER AGENCY
202000453569 7-14 12:56 6200 ARGYLE FOREST BLVD 63 DISPUTE
202000453558 7-14 12:56 7500 JOHN F KENNEDY DR E 76 ASSIST OTHER AGENCY
202000453561 7-14 12:55 ARLINGTON XY SERVICE RD / BERT RD 22 DOMESTIC
202000453412 7-14 12:55 7400 MAIN ST N 9 THEFT
202000453392 7-14 12:55 8200 PHILIPS HWY 95 FRAUD/FORGED (CHECK, ID, RX)
202000453564 7-14 12:53 I295 N OFF RAMP / I10 E E 1050 TRAFFIC STOP
202000453556 7-14 12:53 3800 NANCY ST 95IDT IDENTITY THEFT TELESERVE
202000453542 7-14 12:51 BOULEVARD / MLKEXIT BLVD RP 16 ROAD OBSTRUCTION
202000453546 7-14 12:51 100 DAMES POINT BRG N 16 ROAD OBSTRUCTION
202000453543 7-14 12:50 800 MAIN ST S 86 LOST PROPERTY
202000453531 7-14 12:50 1000 AIRPORT RD 27 MENTALLY ILL PERSON
202000453551 7-14 12:49 4800 SPRING GLEN RD 22 DOMESTIC
202000453510 7-14 12:48 3300 COLLEGE ST 13 SUSPICIOUS PERSON
202000453547 7-14 12:47 5200 NORWOOD AVE 76 ASSIST OTHER AGENCY
202000453442 7-14 12:45 3500 ANDREWS ST 9T THEFT (TELESERVE)
202000453541 7-14 12:43 10100 GATE PKWY N 1066 CANCEL
202000453540 7-14 12:43 8300 CENTURY POINT DR S 27 MENTALLY ILL PERSON
202092018089 7-14 12:42 BOULEVARD / MLKEXIT BLVD RP 76 ASSIST OTHER AGENCY
202000453535 7-14 12:40 SAN JUAN AVE / JAMMES RD 10J VEHICLE THEFT JUST OCCURRED
202000453533 7-14 12:40 6200 ARGYLE FOREST BLVD 95T FRAUD/FORGED (CHECK, ID, RX) (TELESERVE)
202000453532 7-14 12:39 SOUTHSIDE CONNECTOR BLVD / E ARLXEXIT SS RP 1050 TRAFFIC STOP
202000453426 7-14 12:38 900 MACKINAW ST 22 DOMESTIC
202000453530 7-14 12:38 ATLANTIC BLVD / BROOKVIEW DR N 3 HIT AND RUN CRASH
202000453527 7-14 12:37 BEACH BLVD / HODGES BLVD 3 HIT AND RUN CRASH
202000453528 7-14 12:36 ARLINGTON EXPY/ARLINGTON RD 12 RECKLESS DRIVER
202000453524 7-14 12:36 3600 SAN PABLO PKWY 21B BURGLARY BUSINESS
202000453521 7-14 12:34 11900 HAYDEN LAKES CIR 63 DISPUTE
202000453508 7-14 12:33 1200 BEACON POINT DR 63 DISPUTE
202000453519 7-14 12:33 3400 HICKORYNUT ST 4 53 TRAFFIC CRASH PERSON INJURED
202000453370 7-14 12:31 12600 SAN JOSE BLVD 95ID IDENTITY THEFT
202000453356 7-14 12:31 8800 LIBERTY RIDGE DR 9 THEFT
202000453486 7-14 12:30 7300 GREENWAY DR 95 FRAUD/FORGED (CHECK, ID, RX)
202000453471 7-14 12:29 12000 HAYDEN LAKES CIR 27 MENTALLY ILL PERSON
202000453507 7-14 12:29 500 STAFFORDSHIRE DR E 3 HIT AND RUN CRASH
202000453509 7-14 12:29 MAPLE LEAF DR N / CESERY BLVD 2 IMPAIRED/INTOXICATED
202000453374 7-14 12:27 300 CATHERINE ST 63 DISPUTE
202000453494 7-14 12:27 2700 GREEN ST 76 ASSIST OTHER AGENCY
202000453501 7-14 12:26 5200 MONCRIEF RD W 63 DISPUTE
202000453463 7-14 12:25 12500 CHARLES COVE RD 2288 DOMESTIC DISPUTE WITH/ASSAULT
202000453496 7-14 12:24 4400 ROOSEVELT BLVD 54 ILLEGALLY PARKED CAR
202000453495 7-14 12:24 7300 NORMANDY BLVD 0 ARMED
202000453329 7-14 12:21 14000 REVELL DR 95 FRAUD/FORGED (CHECK, ID, RX)
202000453485 7-14 12:20 13800 EGRETS NEST DR 60 SUICIDE OR ATTEMPT
202000453475 7-14 12:20 800 30TH ST W 14R VANDALISM RESIDENCE
202000453472 7-14 12:19 8200 BERRY AVE 63 DISPUTE
202000453474 7-14 12:18 5700 MERRILL RD 9 THEFT
202000453458 7-14 12:17 6100 COLLINS RD 27 MENTALLY ILL PERSON
202000453425 7-14 12:17 7500 103RD ST 2 63 DISPUTE IMPAIRED/INTOXICATED
202000453464 7-14 12:16 6700 103RD ST 63 DISPUTE
202000453461 7-14 12:15 13200 CITY STATION DR 4 AUTO CRASH
202000453462 7-14 12:14 6900 103RD ST 63 DISPUTE
202000453467 7-14 12:14 9800 GIBSON AVE 22 DOMESTIC
202000453468 7-14 12:13 11000 HARTS RD 1050 TRAFFIC STOP
202000453466 7-14 12:13 4000(2700) BLK NEW BERLIN RD E 4 AUTO CRASH
202000453455 7-14 12:08 11500 HARTS RD 63 DISPUTE
202000453457 7-14 12:08 SAN JOSE BLVD / I295 N OFF RAMP 16 ROAD OBSTRUCTION
202000453422 7-14 12:05 5400 COLLINS RD 19 ANIMAL INVESTIGATION
202000453395 7-14 12:05 1900 HOLLINGTON DR 22 DOMESTIC
202000453451 7-14 12:05 1000 AIRPORT RD 76 ASSIST OTHER AGENCY
202000453435 7-14 12:04 1100 COMANCHE ST 1066 CANCEL
202000453418 7-14 12:03 100 RIVERSIDE AVE 14BT VANDALISM BUSINESS TELE-SERVE
202000453429 7-14 12:03 4000 ST JOHNS AVE 79 OBSCENE / THREAT CALL OR LETTER
202000453448 7-14 12:03 1300 NEVA ST 22 DOMESTIC
202000453373 7-14 12:02 500 60TH ST E 22 DOMESTIC
202000453447 7-14 12:02 100 MATHEWS BRG E 96 ASSIST MOTORIST
202000453440 7-14 12:01 6300 BEACH BLVD 63 DISPUTE
202000453443 7-14 12:01 1100 BUNKER HILL BLVD 63 DISPUTE
202000453441 7-14 11:59 8100 OLD KINGS RD S 4 AUTO CRASH
202000453439 7-14 11:59 4300 SAVANNAH AVE 1066 CANCEL
202000453366 7-14 11:58 12500 SHIRLEY OAKS DR 22 DOMESTIC
202000453438 7-14 11:58 LAKE SHORE BLVD / ROYCE AVE 1050 TRAFFIC STOP
202000453358 7-14 11:57 4600 SALISBURY RD 10 VEHICLE THEFT
202000453415 7-14 11:54 5800 BEACH BLVD 63 DISPUTE
202000453313 7-14 11:53 1400 CHAFFEE RD S 63 DISPUTE
202000453270 7-14 11:52 400 CENTURY 21 DR 63 DISPUTE
202000453428 7-14 11:51 500 E BAY ST 14T VANDALISM (TELESERVE)
202000453413 7-14 11:50 4200 BELFORT RD 4 AUTO CRASH
202000453346 7-14 11:49 4100 STILLWOOD DR 63 DISPUTE
202000453414 7-14 11:48 3500 ST JOHNS BLUFF RD S 63 DISPUTE
202000453420 7-14 11:48 ST JOHNS RIVER / BLUE CYPRESS 12 RECKLESS DRIVER
202000453417 7-14 11:47 500 LANE AVE S 63 DISPUTE
202000453277 7-14 11:42 MAIN ST N / 44TH ST E 16 ROAD OBSTRUCTION
202000453406 7-14 11:41 COLLINS RD / RAMPART RD 16 ROAD OBSTRUCTION
202000453402 7-14 11:40 4500 JOCELYN RD W 8 27 MISSING MENTALLY ILL
202000453394 7-14 11:39 5100 LENOX AVE 1066 CANCEL
202000453318 7-14 11:38 2900 ST JOHNS AVE 21CT BURGLARY CONVEYANCE TELESERVE
202000453387 7-14 11:38 2200 SPIRES AVE 10 VEHICLE THEFT
202000453403 7-14 11:37 8200 NEW KINGS RD 1050 TRAFFIC STOP
202000453398 7-14 11:37 BEVERLY AVE / FAIR ST 4 53 TRAFFIC CRASH PERSON INJURED
202000453388 7-14 11:34 NORMANDY BLVD / LAMPLIGHTER LN 4 AUTO CRASH
202000453390 7-14 11:33 OLD ST AUGUSTINE RD / PHILIPS HWY 4 AUTO CRASH
202000453349 7-14 11:33 4500 SUNBEAM RD 10 VEHICLE THEFT
202000453376 7-14 11:33 4200 MELISSA CT W 63 DISPUTE
202000453385 7-14 11:33 3800 UNIVERSITY BLVD W 3 HIT AND RUN CRASH
202000453296 7-14 11:29 6200 BEACH BLVD 9 THEFT
202000453381 7-14 11:29 7000 NORMANDY BLVD 4 AUTO CRASH
202000453383 7-14 11:28 8100 VERACRUZ DR 21C BURGLARY CONVEYANCE
202000453380 7-14 11:28 2900 TALL PINE LN W 14C VANDALISM CONVEYANCE
202000453367 7-14 11:24 6000 VERDES RD 22 DOMESTIC
202000453325 7-14 11:23 11100 GENERAL AVE 4 AUTO CRASH
202000453321 7-14 11:21 5600 BUTLER POINT RD 37 UNVERIFIED 911 CALL
202000453312 7-14 11:17 3700 BLANDING BLVD 63 DISPUTE
202000453364 7-14 11:15 5100 SOUTEL DR 4 53 TRAFFIC CRASH PERSON INJURED
202000453286 7-14 11:14 7800 NORMANDY BLVD 63 DISPUTE
202000453361 7-14 11:14 1400 ATLANTIC BLVD 1066 CANCEL
202000453357 7-14 11:12 7700 TIMBERLIN PARK BLVD 9T THEFT (TELESERVE)
202000453260 7-14 11:10 LE BRUN DR / ARQUES RD 63 DISPUTE
202000453339 7-14 11:07 200 UNION ST W 27 MENTALLY ILL PERSON
202000453342 7-14 11:05 9600 LEM TURNER RD. 52 ILLEGAL DUMPING
202000453334 7-14 11:05 5300 PHILIPS HWY 10R VEHICLE THEFT RECOVERY
202000453340 7-14 11:04 5300 PHIL 10R VEHICLE THEFT RECOVERY
202000453338 7-14 11:04 ATLANTIC BLVD / ACME ST 16 ROAD OBSTRUCTION
202000453256 7-14 11:01 8700 KAYE LN 22 DOMESTIC
202000453309 7-14 11:01 2100 SOFTWIND TRL W 63 DISPUTE
202000453297 7-14 11:00 14600 YELLOW BLUFF RD 9 THEFT
202000453323 7-14 11:00 500 STAFFORDSHIRE DR 3 HIT AND RUN CRASH
202000453290 7-14 11:00 11400 BONNIE LAKES CT 63 DISPUTE
202082013383 7-14 10:58 2300 MAYPORT RD 16 ROAD OBSTRUCTION
202000453265 7-14 10:58 1600 20TH ST E 87 DAMAGED PROPERTY
202000453320 7-14 10:57 1000 18TH ST W 27 MENTALLY ILL PERSON
202082013382 7-14 10:56 100 BLK MAYPORT RD 16 ROAD OBSTRUCTION
202000453317 7-14 10:54 12300 PRESIDENTS CT 63 DISPUTE
202000453315 7-14 10:54 7900 PATOU DR S 1066 CANCEL
202000453255 7-14 10:53 6700 WILSON BLVD 63 DISPUTE
202000453311 7-14 10:53 4500 CAPITAL DOME DR 76 ASSIST OTHER AGENCY
202000453246 7-14 10:53 8000 SUN VALLEY DR 95 FRAUD/FORGED (CHECK, ID, RX)
202000453287 7-14 10:52 2100 PHOENIX AVE. 0 ARMED
202000453266 7-14 10:52 5700 BENEDICT RD 22 DOMESTIC
202000453291 7-14 10:51 100 TALLULAH AVE 22 DOMESTIC
202000453307 7-14 10:51 400 CENTURY 21 DR 63 DISPUTE
202000453250 7-14 10:50 4100 SUNBEAM RD 14C VANDALISM CONVEYANCE
202000453308 7-14 10:50 ROOSEVELT BLVD / ST JOHNS AVE 1050 TRAFFIC STOP
202000453229 7-14 10:50 5200 MONCRIEF RD W 13 SUSPICIOUS PERSON
202000453304 7-14 10:48 4800 ATLANTIC BLVD 4 AUTO CRASH
202000453190 7-14 10:47 9200 HAWKS POINT DR 63 DISPUTE
202000453281 7-14 10:47 MONUMENT RD / ATLANTIC BLVD 27 MENTALLY ILL PERSON
202000453157 7-14 10:46 7800 ARGYLE FOREST BLVD 9 THEFT
202000453280 7-14 10:46 15600 CHIR PINE DR 22 DOMESTIC
202000453299 7-14 10:46 LEM TURNER RD / IDA ST 4 53 TRAFFIC CRASH PERSON INJURED
202000453295 7-14 10:45 4000 HERSCHEL ST 3 HIT AND RUN CRASH
202000453278 7-14 10:43 3000 MAIN ST N 16 ROAD OBSTRUCTION
202000453293 7-14 10:41 MAYAPPLE RD / TOWNSEND BLVD 4 AUTO CRASH
202000453279 7-14 10:36 6200 SEABOARD AVE 16 ROAD OBSTRUCTION
202000453268 7-14 10:34 1700 HODGES BLVD 76 ASSIST OTHER AGENCY
202000453264 7-14 10:33 4300 ATLANTIC BLVD 63 DISPUTE
202000453258 7-14 10:33 200 UNION ST W 63 DISPUTE
202000453221 7-14 10:32 14000 INTEGRA DR 9 THEFT
202000453276 7-14 10:31 700 LIBERTY ST N 4 AUTO CRASH
202000453275 7-14 10:30 3300 POST ST 22 DOMESTIC
202000453271 7-14 10:30 10200 BRIARCLIFF RD E 8 MISSING PERSON
202000453273 7-14 10:29 7200 MERRILL RD 37 UNVERIFIED 911 CALL
202000453262 7-14 10:29 500 BAY RIDGE RD 27 MENTALLY ILL PERSON
202000453188 7-14 10:28 6300 103RD ST 63 DISPUTE
202000453189 7-14 10:27 6700 DISCOVERY CROSSING RD 63 DISPUTE
202000453192 7-14 10:24 12200 SAGO AVE W 9T THEFT (TELESERVE)
202000453222 7-14 10:23 200 STATE ST E 63 DISPUTE
202000453143 7-14 10:23 3300 MANDARIN GLEN DR 22 DOMESTIC
202000453151 7-14 10:21 8500 ATLANTIC BLVD 63 DISPUTE
202000453257 7-14 10:21 700 CASSAT AVE 13 SUSPICIOUS PERSON
202000453252 7-14 10:20 BEAVER ST W / MYRTLE AVE N 13 SUSPICIOUS PERSON
202000453180 7-14 10:18 6000 NORSE DR 9 THEFT
202000453216 7-14 10:18 6000 WAKULLA SPRINGS RD 22 DOMESTIC
202000453243 7-14 10:16 11000 DUSENBURG CT 76 ASSIST OTHER AGENCY
202000453245 7-14 10:15 SAN JOSE BLVD / RICKY DR 16 ROAD OBSTRUCTION
202000453138 7-14 10:14 3700 UNIVERSITY BLVD S 14C VANDALISM CONVEYANCE
202000453217 7-14 10:11 MARKET ST N / BEAVER ST E 63 DISPUTE
202000453207 7-14 10:11 800 GREELAND AVE 0 22 DOMESTIC DISTURBANCE W/WEAPON
202000453122 7-14 10:10 1600 2ND ST W 16 ROAD OBSTRUCTION
202000453236 7-14 10:10 BLANDING BLVD / HARMONIA RD 96 ASSIST MOTORIST
202000453233 7-14 10:09 700 LANE AVE S 9T THEFT (TELESERVE)
202000453230 7-14 10:08 MLK/PHOENIX 12 RECKLESS DRIVER
202000453228 7-14 10:07 UNIV/HARVIN 1050 TRAFFIC STOP
202000453213 7-14 10:05 8500 GATE PKWY W 4 AUTO CRASH
202000453212 7-14 10:02 5700 MAIN ST N 1066 CANCEL
202000453218 7-14 10:02 3800 FOREST BLVD 38 TRAFFIC ASSIGNMENT
202000453182 7-14 10:00 ATLANTIC BLVD / SOUTHSIDE BLVD 68 CON GAME/FLIM FLAM
202000453199 7-14 10:00 2900 MAIN ST N 76 ASSIST OTHER AGENCY
202000453211 7-14 10:00 700 LIBERTY ST N 73 DRUG INVESTIGATION
202000453206 7-14 09:59 OLD MIDDLEBURG RD S / SANDLER RD 22 DOMESTIC
202000453210 7-14 09:59 3700 TURTON AVE 52 ILLEGAL DUMPING
202000453193 7-14 09:59 5500 MONCRIEF RD 27 MENTALLY ILL PERSON
202000453200 7-14 09:57 BEAVER ST W / MCDUFF AVE N 4 53 TRAFFIC CRASH PERSON INJURED
202000453194 7-14 09:56 8800 BEACH BLVD 91 TRAFFIC LIGHT/RR CROSSING MALFUNCTION
202000453202 7-14 09:56 700 EDGEWOOD AVE S 1050 TRAFFIC STOP
202000453183 7-14 09:53 4300 SAGE OAK CT 1066 CANCEL
202000453186 7-14 09:53 5400 RAMONA BLVD 49 REPORT TO HOSPITAL
202000453197 7-14 09:52 LANE AVE N / BROADWAY AVE 16 ROAD OBSTRUCTION
202000453195 7-14 09:51 MLK/1ST 12 RECKLESS DRIVER
202000453187 7-14 09:48 7600 103RD ST 54 ILLEGALLY PARKED CAR
202000453181 7-14 09:48 4200 EAGLES VIEW LN 22 DOMESTIC
202000453147 7-14 09:47 13900 OLD ST AUGUSTINE RD 63 DISPUTE
202000453058 7-14 09:46 12800 MANDARIN RD 87T DAMAGED PROPERTY (TELESERVE)
202000453174 7-14 09:44 100 INDEPENDENT DR W 9T THEFT (TELESERVE)
202000453159 7-14 09:44 4900 FREDERICKSBURG AVE 49 REPORT TO HOSPITAL
202000453176 7-14 09:44 5000 NORWOOD AVE 4 AUTO CRASH
202000453173 7-14 09:43 500 EDGEWOOD AVE S 1050 TRAFFIC STOP
202000453170 7-14 09:42 1300 HENRY ST 22 DOMESTIC
202000453166 7-14 09:41 I295 N OFF RAMP / LEM TURNER RD 4 AUTO CRASH
202000453168 7-14 09:40 1300 3RD ST E 7 DEAD PERSON
202000453169 7-14 09:40 2900 BEACHWOOD BLVD 4 53 TRAFFIC CRASH PERSON INJURED
202000453057 7-14 09:39 9200 CYPRESS GREEN DR 21B BURGLARY BUSINESS
202000453165 7-14 09:38 MLK/12TH 12 RECKLESS DRIVER
202000453079 7-14 09:28 6400 SIERRA DR 50 FOUND/ABANDONED PROPERTY
202000453148 7-14 09:28 2200 COLLEGE CIR N 37 UNVERIFIED 911 CALL
202000453149 7-14 09:27 3800 SAN PABLO RD S 60 SUICIDE OR ATTEMPT
202000453144 7-14 09:25 ASHLEY ST E / NEWNAN ST N 1050 TRAFFIC STOP
202000453125 7-14 09:23 100 19TH ST W 63 DISPUTE
202000453074 7-14 09:21 200 1ST ST E 63 DISPUTE
202000453066 7-14 09:21 9900 BILLMORE CIR N 21C BURGLARY CONVEYANCE
202000453091 7-14 09:19 8300 WESTPORT RD 3 HIT AND RUN CRASH
202000453134 7-14 09:17 SOUTHSIDE BLVD AND GATE PKWY 38 TRAFFIC ASSIGNMENT
202000453131 7-14 09:17 I295 S OFF RAMP / BLANDING BLVD 16 ROAD OBSTRUCTION
202000453104 7-14 09:12 1800 SUNRISE DR 21CT BURGLARY CONVEYANCE TELESERVE
202000453114 7-14 09:11 1600 DUNN AVE 21C BURGLARY CONVEYANCE
202000453080 7-14 09:11 3000 PINE AVE 21C BURGLARY CONVEYANCE
202000453119 7-14 09:11 10000 SKINNER LAKE DR 16 ROAD OBSTRUCTION
202000453123 7-14 09:10 2300 ALEXIA CIR 96 ASSIST MOTORIST
202000453115 7-14 09:09 3000 EDGEWOOD AVE W 63 DISPUTE
202000453117 7-14 09:08 7100 WILSON BLVD 22 DOMESTIC
202000453120 7-14 09:08 3100 EMERSON ST 1050 TRAFFIC STOP
202000453118 7-14 09:07 1600 ART MUSEUM DR 95 FRAUD/FORGED (CHECK, ID, RX)
202000453116 7-14 09:06 6300 PHILIPS HWY 38 TRAFFIC ASSIGNMENT
202000453112 7-14 09:03 7800 POINT MEADOWS DR 5388 ASSAULT INVOLVING INJURY
202000453111 7-14 09:02 JTB/I95NB 1050 TRAFFIC STOP
202000453109 7-14 09:02 500 BULLS BAY HWY 9 THEFT
202000453078 7-14 09:01 4000 LIVINGSTON RD 10 VEHICLE THEFT
202000453100 7-14 09:01 1800 KINGS RD 14C VANDALISM CONVEYANCE
202000453031 7-14 09:00 10800 HARTS RD 63 DISPUTE
202000453068 7-14 09:00 5500 DUNN AVE 14B VANDALISM BUSINESS
202000453108 7-14 09:00 MERRILL/HARTSFIELD 16 ROAD OBSTRUCTION
202000453093 7-14 09:00 1500 LANE AVE S 22 DOMESTIC